Nur fliegen ist schöner ....

Willkommen beim Flugservice Bautzen GmbH

Wir sind eine nach europäischen Richtlinien zugelassene Flugschule und lizenziertes Luftfahrtunternehmen. Bei uns können sie nicht nur Rundflüge über die Oberlausitz oder Sachsen buchen, sondern in unserer Flugschule selber das Fliegen erlernen. Erfahrene Fluglehrer stehen ihnen dabei zur Seite.

Wir bieten außerdem Businessflüghe sowie Transportleistungen auf dem Luftweg, ganz nach ihren Wünschen, an. Schauen sie sich in Ruhe bei uns um und wenn sie Fragen haben oder weitere Informationen benötigen, scheuen sie sich nicht Kontakt mit uns aufzunehmen.

Rundflüge können sie ganz leicht auch online in unserem Shop buchen.

Terminkalender

Letzter Monat Dezember 2016 Nächster Monat
Mo Di Mi Do Fr Sa So
week 48 1 2 3 4
week 49 5 6 7 8 9 10 11
week 50 12 13 14 15 16 17 18
week 51 19 20 21 22 23 24 25
week 52 26 27 28 29 30 31

Flugwetterinfo

[Quelle: ADDS]
METAR
EDDC 041950Z 15003KT CAVOK M03/M05 Q1030 NOSIG =
TAF
EDDC 041700Z 0418/0518 16005KT CAVOK PROB30 TEMPO 0502/0509 3000 BR =
SR / SS: 06:48 / 14:56 UTC (EDAB Flugplatz Bautzen 2016-12-04)

Webcam EDAB

Webcam EDAB
Flugservice Bautzen GmbH, Kornmarkt 34, 02625 Bautzen  Telefon: +49 (3591) 211105, Telefax: +49 (3591) 274512, E-Mail:  flugservice(at)fsbautzen.de